Flag for Austria Weather past 2 weeks in Waidhofen an der Ybbs, Lower Austria, Austria

Now
68 °F

Mild.


Feels Like: 68 °F
Forecast: 61 / 70 °F
Wind: 1 mph from West

Location: Amstetten

Current Time: Jul 30, 2014 at 6:02:18 AM

Latest Report: Jul 30, 2014 at 5:00 AM


Visibility: N/A

Pressure: 29.69 "Hg

Humidity: 89%

Dew point: 65 °F

Location of Waidhofen an der YbbsLocation

Historic Weather in Waidhofen an der Ybbs — Graph

°F

Waidhofen an der Ybbs temperature yesterday

Maximum temperature yesterday: 81 °F (at 5:00 PM)
Minimum temperature yesterday: 64 °F (at 3:00 AM)
Average temperature yesterday: 71 °F

Past Weeks' High & Low Weather Summary

 TemperatureHumidityPressure
High94 °F (Jul 20, 5:00 PM)100% (Jul 24, 8:00 AM)30.16 "Hg (Jul 24, 8:00 AM)
Low54 °F (Jul 24, 5:00 AM)33% (Jul 20, 5:00 PM)29.64 "Hg (Jul 29, 7:00 PM)
Average70 °F75%29.93 "Hg
* Reported Jul 15 4:00 AM — Jul 30 4:00 AM, Waidhofen an der Ybbs, Weather by CustomWeather, © 2014

Note: Actual official high and low records may vary slightly from our data, if they occured in-between our weather recording intervals... More about our weather records

Advertising

Waidhofen an der Ybbs weather history for previous 24 hours

 ConditionsComfort  
Time TempWeatherWind HumidityBarometerVisibility
4:00 AM
Jul 30
67 °FMild.1 mph94%29.70 "HgN/A
3:00 AM66 °FMild.1 mph95%29.70 "HgN/A
2:00 AM67 °FMild.No wind93%29.70 "HgN/A
1:00 AM68 °FMild.2 mph91%29.70 "HgN/A
12:00 AM68 °FMild.No wind91%29.70 "HgN/A
11:00 PM
Jul 29
69 °FMild.1 mph87%29.69 "HgN/A
10:00 PM73 °FMild.No wind79%29.68 "HgN/A
9:00 PM75 °FMild.2 mph72%29.65 "HgN/A
8:00 PM77 °FWarm.1 mph68%29.64 "HgN/A
7:00 PM79 °FWarm.3 mph61%29.64 "HgN/A
6:00 PM80 °FWarm.3 mph61%29.65 "HgN/A
5:00 PM81 °FWarm.3 mph57%29.66 "HgN/A
4:00 PM80 °FWarm.3 mph60%29.68 "HgN/A
3:00 PM79 °FWarm.2 mph63%29.70 "HgN/A
2:00 PM77 °FMild.1 mph66%29.72 "HgN/A
1:00 PM75 °FMild.1 mph65%29.73 "HgN/A
12:00 PM72 °FMild.2 mph72%29.75 "HgN/A
11:00 AM71 °FMild.2 mph76%29.76 "HgN/A
10:00 AM69 °FMild.2 mph85%29.76 "HgN/A
9:00 AM67 °FMild.2 mph90%29.77 "HgN/A
8:00 AM66 °FOvercast.2 mph95%29.77 "HgN/A
7:00 AM65 °FMild.2 mph95%29.75 "HgN/A
6:00 AM65 °FMild.2 mph95%29.74 "HgN/A
Weather by CustomWeather, © 2014

See weather overviewHow to use our weather pages